Campo, CA

2:14 AM PDT on July 17, 2019 (GMT -0700)
Campo

Weather History for KCZZ - May, 2019

Change the Weather History Date:

Saturday, May 18, 2019

  Actual Average Record
Temperature  
Mean Temperature 53 °F 61 °F  
Max Temperature 69 °F 80 °F 97 °F (2008)
Min Temperature 36 °F 42 °F 28 °F (1977)
Degree Days  
Heating Degree Days 12 5  
Month to date heating degree days 145 105  
Since 1 July heating degree days 2863 2873  
Cooling Degree Days 0 1  
Month to date cooling degree days 0 13  
Year to date cooling degree days 2 16  
Growing Degree Days 2 (Base 50)    
Moisture  
Dew Point 42 °F    
Average Humidity 66    
Maximum Humidity 92    
Minimum Humidity 39    
Precipitation  
Precipitation 0.00 in 0.00 in 0.19 in (2011)
Month to date precipitation 0.59 0.14  
Year to date precipitation 11.78 10.00  
Sea Level Pressure  
Sea Level Pressure 29.88 in    
Wind  
Wind Speed 8 mph (SW)    
Max Wind Speed 20 mph    
Max Gust Speed 27 mph    
T = Trace of Precipitation, MM = Missing Value Source: NWS Daily Summary

Daily Weather History Graph

Daily Weather History Graph

Search for Another Location

Airport or City:

Astronomy

May. 18, 2019 Rise Set
Actual Time 5:45 AM PDT 7:39 PM PDT
Civil Twilight 5:18 AM PDT 8:06 PM PDT
Nautical Twilight 4:45 AM PDT 8:40 PM PDT
Astronomical Twilight 4:10 AM PDT 9:15 PM PDT
Moon 7:42 PM PDT (5/18) 5:49 AM PDT (5/18)
Length of Visible Light 14h 48m
Length of Day
13h 54m
Full, 100% of the Moon is Illuminated
May 18
Full
May 18
Full
May 26
Last Quarter
Jun 3
New
Jun 9
First Quarter

Hourly Weather History & Observations

Time (PDT) Temp. Windchill Dew Point Humidity Pressure Visibility Wind Dir Wind Speed Gust Speed Precip Events Conditions
12:52 AM 39.9 °F 36.7 °F 37.0 °F 89% 29.91 in - NE 4.6 mph - N/A   Unknown
1:52 AM 39.9 °F 35.8 °F 37.0 °F 89% 29.89 in - NE 5.8 mph - N/A   Unknown
2:52 AM 39.0 °F - 37.0 °F 93% 29.88 in - Calm Calm - N/A   Unknown
3:52 AM 39.9 °F - 37.9 °F 93% 29.87 in - Calm Calm - N/A   Unknown
4:52 AM 37.9 °F 35.5 °F 36.0 °F 93% 29.87 in - NNE 3.5 mph - N/A   Unknown
5:52 AM 37.0 °F 32.4 °F 35.1 °F 93% 29.87 in - NE 5.8 mph - N/A   Unknown
6:52 AM 42.1 °F - 39.0 °F 89% 29.88 in - Calm Calm - N/A   Unknown
8:52 AM 55.9 °F - 43.0 °F 62% 29.88 in - West 3.5 mph - N/A   Unknown
9:52 AM 62.1 °F - 42.1 °F 48% 29.88 in - SW 8.1 mph - N/A   Unknown
10:52 AM 64.9 °F - 44.1 °F 47% 29.88 in - SSW 17.3 mph - N/A   Unknown
11:52 AM 64.9 °F - 45.0 °F 48% 29.89 in - SW 16.1 mph - N/A   Unknown
12:52 PM 66.9 °F - 45.0 °F 45% 29.90 in - SSW 16.1 mph 24.2 mph N/A   Unknown
1:52 PM 68.0 °F - 42.1 °F 39% 29.90 in - WSW 12.7 mph 20.7 mph N/A   Unknown
2:52 PM 66.9 °F - 42.1 °F 40% 29.90 in - WSW 11.5 mph - N/A   Unknown
3:52 PM 66.9 °F - 44.1 °F 44% 29.86 in - SW 19.6 mph 26.5 mph N/A   Unknown
4:52 PM 64.9 °F - 44.1 °F 47% 29.86 in - SW 15.0 mph - N/A   Unknown
5:52 PM 63.0 °F - 45.0 °F 52% 29.87 in - SW 15.0 mph - N/A   Unknown
6:52 PM 57.9 °F - 46.0 °F 65% 29.87 in - SW 15.0 mph - N/A   Unknown
7:52 PM 55.0 °F - 46.9 °F 74% 29.87 in - SW 11.5 mph - N/A   Unknown
8:52 PM 50.0 °F - 46.0 °F 86% 29.88 in - ESE 4.6 mph - N/A   Unknown
9:52 PM 48.0 °F - 45.0 °F 89% 29.87 in - NNE 3.5 mph - N/A   Unknown
10:52 PM 45.0 °F - 42.1 °F 90% 29.88 in - Calm Calm - N/A   Unknown
11:52 PM 44.1 °F 42.5 °F 41.0 °F 89% 29.88 in - ENE 3.5 mph - N/A   Unknown